Watertown, SD

3:11 AM CDT on April 21, 2018 (GMT -0500)
Watertown Municipal

Weather History for KATY - February, 2014

Change the Weather History Date:

Friday, February 21, 2014

  Actual Average Record
Temperature  
Mean Temperature 12 °F 20 °F  
Max Temperature 20 °F 29 °F 58 °F (2000)
Min Temperature 4 °F 10 °F -25 °F (1936)
Degree Days  
Heating Degree Days 53 45  
Month to date heating degree days 1196 1022  
Since 1 July heating degree days 6538 6104  
Cooling Degree Days 0 0  
Month to date cooling degree days 0 0  
Year to date cooling degree days 0 0  
Moisture  
Dew Point 4 °F    
Average Humidity 75    
Maximum Humidity 88    
Minimum Humidity 61    
Precipitation  
Precipitation 0.00 in 0.02 in 0.50 in (1957)
Month to date precipitation 0.08 0.38  
Year to date precipitation 0.38 0.90  
Snow  
Snow 0.00 in - - ()
Month to date snowfall 0.8  
Since 1 July snowfall 16.9  
Snow Depth 6.00 in    
Sea Level Pressure  
Sea Level Pressure 29.77 in    
Wind  
Wind Speed 15 mph (WNW)    
Max Wind Speed 24 mph    
Max Gust Speed 31 mph    
Visibility 10 miles    
Events      
T = Trace of Precipitation, MM = Missing Value Source: NWS Daily Summary

Daily Weather History Graph

Daily Weather History Graph

Search for Another Location

Airport or City:

Astronomy

Feb. 21, 2014 Rise Set
Actual Time 7:19 AM CST 6:05 PM CST
Civil Twilight 6:50 AM CST 6:35 PM CST
Nautical Twilight 6:15 AM CST 7:09 PM CST
Astronomical Twilight 5:42 AM CST 7:43 PM CST
Moon 12:16 AM CST 10:27 AM CST
Length of Visible Light 11h 45m
Length of Day
10h 45m
Waning Gibbous, 60% of the Moon is Illuminated
Feb 21
Waning Gibbous
Feb 22
Last Quarter
Mar 1
New
Mar 8
First Quarter
Mar 16
Full

Hourly Weather History & Observations

Time (CST) Temp. Windchill Dew Point Humidity Pressure Visibility Wind Dir Wind Speed Gust Speed Precip Events Conditions
12:22 AM 10.0 °F -9.1 °F 6.1 °F 84% 29.61 in 10.0 mi NW 20.7 mph 29.9 mph N/A   Scattered Clouds
12:53 AM 10.0 °F -8.6 °F 5.0 °F 80% 29.69 in 10.0 mi NW 19.6 mph 26.5 mph N/A   Clear
1:35 AM 9.0 °F -8.5 °F 5.0 °F 84% 29.60 in 10.0 mi NW 16.1 mph - N/A   Mostly Cloudy
1:53 AM 9.0 °F -9.5 °F 5.0 °F 84% 29.68 in 10.0 mi NW 18.4 mph 24.2 mph N/A   Partly Cloudy
2:53 AM 7.0 °F -10.4 °F 3.0 °F 84% 29.68 in 10.0 mi NW 15.0 mph 25.3 mph N/A   Partly Cloudy
3:53 AM 6.1 °F -10.9 °F 1.9 °F 83% 29.69 in 10.0 mi NW 13.8 mph - N/A   Clear
4:53 AM 5.0 °F -12.3 °F 1.0 °F 84% 29.72 in 10.0 mi WNW 13.8 mph - N/A   Clear
5:53 AM 5.0 °F -12.3 °F 1.0 °F 84% 29.75 in 10.0 mi WNW 13.8 mph - N/A   Clear
6:53 AM 5.0 °F -14.7 °F -0.0 °F 80% 29.74 in 10.0 mi WNW 18.4 mph - N/A   Clear
7:53 AM 5.0 °F -14.2 °F -0.0 °F 80% 29.75 in 10.0 mi WNW 17.3 mph - N/A   Clear
8:53 AM 7.0 °F -9.8 °F 1.0 °F 77% 29.75 in 10.0 mi NW 13.8 mph - N/A   Clear
9:53 AM 9.0 °F -7.9 °F 3.0 °F 77% 29.77 in 10.0 mi WNW 15.0 mph - N/A   Clear
10:53 AM 12.0 °F -4.0 °F 6.1 °F 77% 29.77 in 10.0 mi WNW 15.0 mph - N/A   Clear
11:53 AM 15.1 °F -1.1 °F 8.1 °F 74% 29.77 in 10.0 mi WNW 17.3 mph - N/A   Clear
12:53 PM 17.1 °F 0.6 °F 9.0 °F 71% 29.77 in 10.0 mi NW 19.6 mph - N/A   Clear
1:53 PM 19.0 °F 3.6 °F 10.9 °F 71% 29.77 in 10.0 mi WNW 18.4 mph - N/A   Partly Cloudy
2:53 PM 19.9 °F 6.2 °F 10.0 °F 65% 29.78 in 10.0 mi WNW 15.0 mph - N/A   Clear
3:53 PM 19.9 °F 4.3 °F 9.0 °F 62% 29.80 in 10.0 mi NW 19.6 mph 26.5 mph N/A   Clear
4:53 PM 19.0 °F 4.5 °F 9.0 °F 65% 29.82 in 10.0 mi WNW 16.1 mph - N/A   Clear
5:53 PM 17.1 °F 5.8 °F 6.1 °F 62% 29.84 in 10.0 mi WNW 9.2 mph - N/A   Clear
6:53 PM 15.1 °F 4.2 °F 5.0 °F 64% 29.86 in 10.0 mi WNW 8.1 mph - N/A   Clear
7:53 PM 12.9 °F -1.6 °F 3.0 °F 65% 29.89 in 10.0 mi WNW 12.7 mph - N/A   Clear
8:53 PM 10.9 °F -2.6 °F 1.9 °F 67% 29.90 in 10.0 mi WNW 10.4 mph - N/A   Clear
9:53 PM 10.0 °F -4.5 °F 1.9 °F 70% 29.91 in 10.0 mi WNW 11.5 mph - N/A   Clear
10:53 PM 9.0 °F -5.9 °F 1.0 °F 70% 29.91 in 10.0 mi NW 11.5 mph - N/A   Clear
11:53 PM 8.1 °F -7.0 °F 1.0 °F 73% 29.93 in 10.0 mi NW 11.5 mph - N/A   Clear